Weather History for KGCD - November, 2013

Change the Weather History Date:

Friday, November 8, 2013

  Actual Average (KBNO) Record (KBNO)
Temperature  
Mean Temperature 40 °F 36 °F  
Max Temperature 45 °F 49 °F 67 °F (1978)
Min Temperature 36 °F 24 °F 8 °F (1993)
Degree Days  
Heating Degree Days 24 29  
Month to date heating degree days 218  
Since 1 July heating degree days 1268  
Cooling Degree Days 0 0  
Month to date cooling degree days 0  
Year to date cooling degree days 215  
Moisture  
Dew Point 31 °F    
Average Humidity 72    
Maximum Humidity 84    
Minimum Humidity 59    
Precipitation  
Precipitation 0.00 in 0.04 in 0.45 in (1968)
Month to date precipitation 0.28  
Year to date precipitation 8.48  
Sea Level Pressure  
Sea Level Pressure 30.11 in    
Wind  
Wind Speed 4 mph (South)    
Max Wind Speed 10 mph    
Max Gust Speed -    
Visibility 10 miles    
Events      
T = Trace of Precipitation, MM = Missing Value Source: NWS Daily Summary

Daily Weather History Graph

Daily Weather History Graph

Search for Another Location

Airport or City:

Trip Planner

Search our weather history database for the weather conditions in past years. The results will help you decide how hot, cold, wet, or windy it might be!

Date:

Astronomy

Nov. 08, 2013 Rise Set
Actual Time 6:42 AM PST 4:35 PM PST
Civil Twilight 6:12 AM PST 5:06 PM PST
Nautical Twilight 5:37 AM PST 5:41 PM PST
Astronomical Twilight 5:03 AM PST 6:15 PM PST
Moon 11:42 AM PST (11/8) 10:03 PM PST (11/8)
Length of Visible Light 10h 54m
Length of Day
9h 52m
Waxing Crescent, 34% of the Moon is Illuminated
Nov 8
Waxing Crescent
Nov 9
First Quarter
Nov 17
Full
Nov 25
Last Quarter
Dec 2
New

Hourly Weather History & Observations

Time (PST) Temp. Windchill Dew Point Humidity Pressure Visibility Wind Dir Wind Speed Gust Speed Precip Events Conditions
12:15 AM 38.7 °F 35.2 °F 32.0 °F 77% 30.08 in 10.0 mi SW 4.6 mph - N/A   Clear
12:35 AM 38.8 °F 34.6 °F 32.0 °F 76% 30.09 in 10.0 mi SW 5.8 mph - N/A   Scattered Clouds
12:55 AM 38.7 °F 35.2 °F 31.8 °F 76% 30.09 in 10.0 mi SW 4.6 mph - N/A   Mostly Cloudy
1:15 AM 38.7 °F 33.6 °F 31.6 °F 76% 30.09 in 10.0 mi SW 6.9 mph - N/A   Mostly Cloudy
1:35 AM 38.5 °F 34.1 °F 31.5 °F 76% 30.09 in 10.0 mi SW 5.8 mph - N/A   Scattered Clouds
1:55 AM 38.8 °F 35.4 °F 31.1 °F 74% 30.10 in 10.0 mi West 4.6 mph - N/A   Scattered Clouds
2:15 AM 38.3 °F 35.9 °F 30.7 °F 74% 30.09 in 10.0 mi South 3.5 mph - N/A   Scattered Clouds
2:35 AM 39.2 °F 35.9 °F 30.2 °F 70% 30.09 in 10.0 mi SSW 4.6 mph - N/A   Clear
2:55 AM 39.2 °F - 29.8 °F 69% 30.09 in 10.0 mi Calm Calm - N/A   Mostly Cloudy
3:15 AM 39.6 °F 33.5 °F 30.2 °F 69% 30.09 in 10.0 mi SSW 9.2 mph - N/A   Overcast
3:35 AM 40.1 °F 33.6 °F 30.2 °F 68% 30.09 in 10.0 mi SSW 10.4 mph - N/A   Overcast
3:55 AM 39.2 °F 35.0 °F 30.7 °F 72% 30.10 in 10.0 mi WSW 5.8 mph - N/A   Overcast
4:15 AM 39.2 °F 35.9 °F 31.1 °F 73% 30.10 in 10.0 mi SW 4.6 mph - N/A   Overcast
4:35 AM 39.2 °F 37.0 °F 31.1 °F 73% 30.09 in 10.0 mi SSW 3.5 mph - N/A   Overcast
4:55 AM 39.4 °F - 30.6 °F 71% 30.10 in 10.0 mi Calm Calm - N/A   Overcast
5:15 AM 38.7 °F - 30.9 °F 74% 30.10 in 10.0 mi Calm Calm - N/A   Overcast
5:35 AM 39.0 °F - 30.2 °F 71% 30.10 in 10.0 mi Calm Calm - N/A   Mostly Cloudy
5:55 AM 40.1 °F 36.9 °F 29.7 °F 66% 30.09 in 10.0 mi SW 4.6 mph - N/A   Scattered Clouds
6:15 AM 38.3 °F 35.9 °F 29.3 °F 70% 30.09 in 10.0 mi WSW 3.5 mph - N/A   Scattered Clouds
6:35 AM 38.5 °F 34.1 °F 29.3 °F 70% 30.10 in 10.0 mi WSW 5.8 mph - N/A   Scattered Clouds
6:55 AM 37.6 °F - 30.0 °F 74% 30.11 in 10.0 mi Calm Calm - N/A   Overcast
7:15 AM 37.9 °F - 30.7 °F 75% 30.11 in 10.0 mi Calm Calm - N/A   Overcast
7:35 AM 37.6 °F 35.1 °F 31.1 °F 77% 30.12 in 10.0 mi ESE 3.5 mph - N/A   Scattered Clouds
7:55 AM 37.9 °F 32.7 °F 31.6 °F 78% 30.12 in 10.0 mi SE 6.9 mph - N/A   Scattered Clouds
8:15 AM 37.9 °F 34.4 °F 32.7 °F 81% 30.13 in 10.0 mi East 4.6 mph - N/A   Scattered Clouds
8:35 AM 38.3 °F 34.8 °F 32.4 °F 79% 30.14 in 10.0 mi East 4.6 mph - N/A   Clear
8:55 AM 38.7 °F 36.3 °F 32.7 °F 79% 30.14 in 10.0 mi ESE 3.5 mph - N/A   Mostly Cloudy
9:15 AM 39.7 °F 37.6 °F 32.4 °F 75% 30.14 in 10.0 mi ESE 3.5 mph - N/A   Scattered Clouds
9:35 AM 41.0 °F - 33.3 °F 74% 30.14 in 10.0 mi Calm Calm - N/A   Mostly Cloudy
9:55 AM 41.4 °F - 31.8 °F 69% 30.15 in 10.0 mi Calm Calm - N/A   Overcast
10:15 AM 41.9 °F - 32.4 °F 69% 30.16 in 10.0 mi Calm Calm - N/A   Overcast
10:35 AM 41.9 °F - 31.6 °F 67% 30.15 in 10.0 mi Calm Calm - N/A   Overcast
10:55 AM 42.3 °F - 31.5 °F 66% 30.15 in 10.0 mi Calm Calm - N/A   Overcast
11:15 AM 43.2 °F - 32.0 °F 65% 30.14 in 10.0 mi Calm Calm - N/A   Overcast
11:35 AM 42.6 °F - 31.3 °F 64% 30.14 in 10.0 mi Calm Calm - N/A   Overcast
11:55 AM 43.0 °F - 32.0 °F 65% 30.12 in 10.0 mi Calm Calm - N/A   Overcast
12:15 PM 43.5 °F - 31.8 °F 63% 30.12 in 10.0 mi Calm Calm - N/A   Overcast
12:35 PM 43.7 °F 41.1 °F 30.9 °F 61% 30.12 in 10.0 mi West 4.6 mph - N/A   Scattered Clouds
12:55 PM 45.0 °F 41.2 °F 31.8 °F 60% 30.12 in 10.0 mi West 6.9 mph - N/A   Scattered Clouds
1:15 PM 44.4 °F 42.9 °F 30.9 °F 59% 30.11 in 10.0 mi West 3.5 mph - N/A   Scattered Clouds
1:35 PM 44.6 °F 42.2 °F 31.5 °F 60% 30.11 in 10.0 mi WSW 4.6 mph - N/A   Scattered Clouds
1:55 PM 44.1 °F 42.5 °F 30.7 °F 59% 30.10 in 10.0 mi WSW 3.5 mph - N/A   Mostly Cloudy
2:15 PM 43.7 °F - 30.7 °F 60% 30.11 in 10.0 mi Calm Calm - N/A   Overcast
2:35 PM 43.7 °F - 31.1 °F 61% 30.11 in 10.0 mi Calm Calm - N/A   Overcast
2:55 PM 43.7 °F 42.1 °F 31.1 °F 61% 30.11 in 10.0 mi SW 3.5 mph - N/A   Overcast
3:15 PM 43.7 °F 42.1 °F 31.5 °F 62% 30.11 in 10.0 mi SW 3.5 mph - N/A   Overcast
3:35 PM 43.7 °F - 31.8 °F 63% 30.11 in 10.0 mi Calm Calm - N/A   Overcast
3:55 PM 43.7 °F 42.1 °F 32.0 °F 63% 30.12 in 10.0 mi WNW 3.5 mph - N/A   Overcast
4:15 PM 42.8 °F 41.1 °F 32.5 °F 67% 30.11 in 10.0 mi WNW 3.5 mph - N/A   Overcast
4:35 PM 41.9 °F 40.0 °F 32.4 °F 69% 30.11 in 10.0 mi WNW 3.5 mph - N/A   Overcast
4:55 PM 41.0 °F 39.0 °F 32.4 °F 71% 30.12 in 10.0 mi NW 3.5 mph - N/A   Overcast
5:15 PM 41.4 °F - 32.0 °F 69% 30.11 in 10.0 mi Calm Calm - N/A   Overcast
5:35 PM 41.2 °F - 31.8 °F 69% 30.11 in 10.0 mi Calm Calm - N/A   Overcast
5:55 PM 41.0 °F - 32.2 °F 71% 30.11 in 10.0 mi Calm Calm - N/A   Mostly Cloudy
6:15 PM 40.5 °F - 31.8 °F 71% 30.11 in 10.0 mi Calm Calm - N/A   Clear
6:35 PM 40.5 °F - 32.0 °F 72% 30.12 in 10.0 mi Calm Calm - N/A   Clear
6:55 PM 40.6 °F - 31.8 °F 71% 30.12 in 10.0 mi Calm Calm - N/A   Clear
7:15 PM 39.2 °F 37.0 °F 31.6 °F 74% 30.12 in 10.0 mi SSE 3.5 mph - N/A   Clear
7:35 PM 37.8 °F 33.3 °F 31.1 °F 77% 30.12 in 10.0 mi South 5.8 mph - N/A   Clear
7:55 PM 37.9 °F 34.4 °F 31.6 °F 78% 30.12 in 10.0 mi SE 4.6 mph - N/A   Clear
8:15 PM 37.9 °F 32.7 °F 32.0 °F 79% 30.12 in 10.0 mi ESE 6.9 mph - N/A   Scattered Clouds
8:35 PM 38.3 °F 33.9 °F 32.0 °F 78% 30.12 in 10.0 mi East 5.8 mph - N/A   Mostly Cloudy
8:55 PM 38.1 °F 33.7 °F 31.8 °F 78% 30.12 in 10.0 mi ESE 5.8 mph - N/A   Overcast
9:15 PM 38.5 °F 34.1 °F 32.0 °F 78% 30.12 in 10.0 mi ESE 5.8 mph - N/A   Overcast
9:35 PM 38.1 °F 35.7 °F 32.0 °F 79% 30.12 in 10.0 mi East 3.5 mph - N/A   Overcast
9:55 PM 37.6 °F 32.3 °F 32.0 °F 80% 30.12 in 10.0 mi East 6.9 mph - N/A   Scattered Clouds
10:15 PM 36.9 °F 32.2 °F 32.0 °F 83% 30.13 in 10.0 mi ESE 5.8 mph - N/A   Scattered Clouds
10:35 PM 36.9 °F 34.3 °F 31.8 °F 82% 30.13 in 10.0 mi ESE 3.5 mph - N/A   Scattered Clouds
10:55 PM 36.3 °F 31.6 °F 31.8 °F 84% 30.12 in 10.0 mi East 5.8 mph - N/A   Mostly Cloudy
11:15 PM 36.5 °F 31.0 °F 31.3 °F 81% 30.12 in 10.0 mi ESE 6.9 mph - N/A   Scattered Clouds
11:35 PM 36.1 °F 30.6 °F 31.3 °F 83% 30.12 in 10.0 mi East 6.9 mph - N/A   Scattered Clouds
11:55 PM 36.3 °F 30.1 °F 31.6 °F 83% 30.12 in 10.0 mi ESE 8.1 mph - N/A   Overcast